Regional Weather Roundup
Issued by NWS Wakefield, VA

Home | Current Version | Previous Version | Text Only | Print | Product List | Glossary Off
Versions: 1 2 3 4 5 6 7 8 9 10 11 12 13 14 15 16 17 18 19 20 21 22 23 24 25 26 27 28 29 30 31 32 33 34 35 36
000 ASUS41 KAKQ 231410 RWRAKQ REGIONAL WEATHER ROUNDUP NATIONAL WEATHER SERVICE WAKEFIELD VA 1000 AM EDT THU OCT 23 2014 Note: "fair" indicates few or no clouds below 12,000 feet with no significant weather and/or obstructions to visibility. * = Denotes station may not report precipitation (e.g., rain,snow,etc.), thunder or fog. VAZ042-051-052>054-056-231500- NORTHERN VIRGINIA CITY SKY/WX TMP DP RH WIND PRES REMARKS WASH NATIONAL MOSUNNY 58 42 55 NW12G22 29.90F DULLES MOSUNNY 55 42 61 NW18G25 29.93R FORT BELVOIR PTSUNNY 56 43 61 NW18G28 29.91F QUANTICO MOSUNNY 58 43 57 N14G28 29.93S FREDERICKSBRG* SUNNY 58 45 60 NW9G22 29.93S STAFFORD* MOSUNNY 56 42 59 NW21G29 29.97S WARRENTON SUNNY 58 49 69 NW15G28 29.94S CULPEPER* PTSUNNY 59 45 58 N7G18 29.95S MANASSAS* SUNNY 55 45 67 NW22 29.94S LEESBURG* MOSUNNY 55 46 71 N23G29 29.94R WINCHESTER SUNNY 55 37 50 NW22G28 29.97F FRONT ROYAL* CLOUDY 54 43 66 NW8G16 29.99S LURAY* SUNNY 54 43 66 NW5G18 30.00F $$ VAZ048-049-060>072-079>083-231500- CENTRAL AND SOUTH CENTRAL VIRGINIA...AND NORTH CENTRAL NORTH CAROLINA CITY SKY/WX TMP DP RH WIND PRES REMARKS RICHMOND MOSUNNY 56 42 59 NW15 29.94S CHESTERFIELD* PTSUNNY N/A N/A N/A NW14G22 29.95F PETERSBURG* PTSUNNY 54 40 59 W8 29.96S HANOVER CLOUDY 54 43 66 W12G18 29.95F TAPPAHANNOCK* CLOUDY 56 40 56 NW10G17 29.92S CHARLOTTSVILLE SUNNY 57 41 55 NW14G25 29.96F ORANGE* PTSUNNY 57 45 62 W14 29.97S LOUISA* CLOUDY 55 45 67 W10G16 29.94F FARMVILLE* SUNNY 55 41 58 NW5 29.97S CREWE* SUNNY 55 40 57 W9 29.98R FORT PICKETT* SUNNY 55 42 63 NW10G18 29.97F LUNENBURG* SUNNY 54 43 67 CALM 29.99S SOUTH HILL* SUNNY 57 43 58 NW7 30.03F LAWRENCEVILLE* SUNNY 53 44 72 NW7 29.97F ROANOKE RAPIDS SUNNY 55 43 62 NW12G18 29.98F RALEIGH SUNNY 55 40 56 NW10G20 30.02S $$ VAZ088>098-231500- SOUTHEAST VIRGINIA CITY SKY/WX TMP DP RH WIND PRES REMARKS NORFOLK CLOUDY 56 43 61 NW10G23 29.90S VIRGINIA BEACH PTSUNNY 58 45 62 NW15G28 29.89R NORFOLK NAVAL PTSUNNY 58 44 60 NW20G29 29.92R WEST POINT* SUNNY 58 43 56 NW9G23 29.92F NEWPORT NEWS MOSUNNY 58 43 57 NW23G29 29.91S LANGLEY AFB CLOUDY 55 44 65 W18G25 29.91R FORT EUSTIS MOSUNNY 57 41 55 NW18G28 29.90S WILLIAMSBURG* SUNNY 57 46 67 NW17G24 29.92S HR EXEC AP* PTSUNNY 54 45 71 W9 29.94S FRANKLIN* SUNNY 55 43 62 NW13G20 29.94F WAKEFIELD SUNNY 56 43 61 W8 29.94F $$ VAZ020-022-025-037-045-231500- WEST CENTRAL AND SOUTHWEST VIRGINIA CITY SKY/WX TMP DP RH WIND PRES REMARKS STAUNTON* SUNNY 55 40 58 N15G21 30.04S HOT SPRINGS VA CLOUDY 40 38 90 W20G31 30.03F LYNCHBURG SUNNY 55 39 54 MISG 30.04R DANVILLE SUNNY 57 40 52 NW9G20 30.03F SOUTH BOSTON* NOT AVBL MARTINSVILLE SUNNY 56 40 55 N17G23 30.08S ROANOKE MOSUNNY 54 38 54 NW18G24 30.09F BLACKSBURG CLOUDY 50 43 76 NW17 30.14R DUBLIN* CLOUDY 47 40 76 NW12 30.15R MARION* CLOUDY 46 37 73 NW3 30.20R HILLSVILLE* PTSUNNY 44 37 75 NW23G32 30.11S RICHLANDS* CLOUDY 45 40 84 NW6 30.19S WISE* CLOUDY 43 41 93 N6 30.22R ABINGDON* CLOUDY 47 39 76 CALM 30.21R $$ MDZ021>025-VAZ099-100-231500- SOUTHERN MARYLAND AND THE DELMARVA PENINSULA CITY SKY/WX TMP DP RH WIND PRES REMARKS PATUXENT RIVER PTSUNNY 55 43 63 NW20G26 29.87S BAY BRIDGE APT N/A 55 45 67 NW15G24 29.85R LEONARDTOWN CLOUDY 54 43 66 W12G18 29.89S DOVER PTSUNNY 52 48 87 NW21G26 29.78S GEORGETOWN LGT RAIN 52 47 83 NW8 29.81R EASTON CLOUDY 57 48 72 NW12G18 29.87S CAMBRIDGE CLOUDY 55 45 67 NW13G22 29.84S VSB<1/4 SALISBURY CLOUDY 57 45 64 NW9G20 29.82R OCEAN CITY CLOUDY 54 46 74 NW14G22 29.79R WALLOPS ISLAND CLOUDY 56 46 69 NW16G26 29.83R ACCOMACK* CLOUDY 55 43 62 NW20G28 29.85S $$ NCZ012>017-030>032-231500- EASTERN NORTH CAROLINA CITY SKY/WX TMP DP RH WIND PRES REMARKS ELIZABETH CITY PTSUNNY 57 44 62 W21 29.91F AHOSKIE* SUNNY 55 43 62 NW7 29.96F EDENTON* PTSUNNY 56 45 66 NW10 29.94F CURRITUCK* SUNNY 55 42 61 W10G22 29.91S KILL DEVIL HLS PTSUNNY 55 45 69 W14G20 29.89S MANTEO CLOUDY 55 44 68 NW15G28 29.91S CAPE HATTERAS SUNNY 56 46 69 NW15G30 29.93S TARBORO* SUNNY 56 44 63 NW10G16 29.99F GOLDSBORO SUNNY 55 47 75 NW1 29.99S WASHINGTON SUNNY 55 43 66 NW8 29.98S GREENVILLE SUNNY 55 43 62 NW8 30.00S NEW BERN SUNNY 58 44 60 NW8 30.00S WILMINGTON SUNNY 56 43 61 N13 30.03S $$ VAZ048-231500- ELSEWHERE CITY SKY/WX TMP DP RH WIND PRES REMARKS HARRISBURG PA CLOUDY 54 43 66 NW12G24 29.88R BALTIMORE PTSUNNY 56 44 64 NW13G23 29.86S ANNAPOLIS CLOUDY 56 44 64 NW10 29.86R ANDREWS AFB CLOUDY 54 44 67 W17 29.88S WILMINGTON DE CLOUDY 52 47 83 NW20 29.81R PHILADELPHIA CLOUDY 52 46 80 NW18G28 29.78S WILDWOOD NJ* CLOUDY 54 45 71 NW13G22 29.77R ATLANTIC CITY CLOUDY 50 48 93 NW20 29.73R HENDERSON NC SUNNY 55 40 57 NW12 30.01S GREENSBORO SUNNY 54 40 59 NW8 30.05R ROCKY MOUNT SUNNY 56 43 61 NW14 30.00S FAYETTEVILLE SUNNY 57 40 52 NW13G18 30.04R CHARLOTTE SUNNY 52 39 61 NW8 30.10R $$ VAZ100-231500- MARINE STATION/POSITION TIME TEMP WIND PRES WAVE SWELL AIR SEA DIR/SP/G HT/PER HT/PER (UTC) (F) (DEG/KT/KT) (MB) (FT/S) (FT/S) 44066 TX TWR #4 1400 58 67 350/ 23/ 27 1000.7R 10/ 8 CAPE MAY NJ 1400 54 65 330/ 20/ 31 1007.5R LEWES DE 1400 54 59 320/ 26/ 29 1008.4R 15NM E FENWICK I 1400 56 65 310/ 25/ 31 1006.8R 10/ 8 3/12 OCEAN-CITY-INLET 1400 55 64 330/ 15/ 23 1008.3S WACHAPREAGUE VA 1400 55 60 280/ 2/ 8 1010.7R THOMAS POINT MD 1400 55 62 310/ 17/ 21 1011.8R GOOSES REEF MD 1400 56 320/ 19/ 23 1011.3S COVE POINT MD 1400 54 330/ 16/ 21 1011.0R SOLOMONS ISLAND 1400 63 N/A BISHOPS HEAD MD 1400 55 54 310/ 20/ 26 1010.4R PINEY POINT MD 1400 330/ 25/ 29 N/A POTOMAC MD 1400 56 330/ 23/ 27 1011.2R CAMBRIDGE MD 1400 56 60 310/ 17/ 22 1010.2S LEWISETTA VA 1400 56 59 330/ 15/ 19 1011.8S RAPPAHANNOCK LGT 1400 300/ 25/ 29 1011.6S STINGRAY PT 1400 56 310/ 19/ 25 1012.1S YORK RVR RNG VA 1400 54 330/ 22/ 30 1011.6S YORKTOWN VA 1400 56 65 320/ 23/ 28 1012.2R JAMESTOWN VA 1400 55 330/ 16/ 19 N/A DOMINION TERM VA 1400 56 320/ 19/ 25 1012.8R KIPTOPEKE VA 1400 66 330/ 25/ 30 N/A CHES BAY BRIDGE 1400 55 65 290/ 21/ 28 1011.8R CAPE HENRY VA 1400 55 300/ 25/ 30 1010.8S CHESAPEAKE LGHT 1300 56 320/ 29/ 33 1011.6R WILLOUBY STN VA 1400 55 310/ 19/ 24 1011.4F S CRANEY ISL VA 1400 290/ 12/ 22 1012.5S CAPE HENRY BUOY 1400 68 N/A 6/ 5 2/11 1ST LANDING BUOY 1400 57 300/ 23/ 29 1011.6S CAPE CHARLES BUO 1400 67 N/A 5/ 5 2/ 9 64NM E OF VA BCH 1400 60 70 310/ 27/ 33 1008.5R 10/ 7 3/10 DUCK PIER NC 1400 55 66 310/ 19/ 24 1011.2S 44100 DUCK FRF 1400 69 N/A 7/ 9 2/11 44056 DUCK FRF 1400 N/A 5/ 8 2/11 OREGON INLET NC 1400 55 64 310/ 20/ 25 1012.2S HATTERAS NC 1400 57 63 310/ 23/ 28 1013.8F DIAMOND SHLS NC 1300 59 310/ 27/ 33 1012.3R 7/ 6 2/ 9 CAPE LOOKOUT NC 1300 55 320/ 14/ 17 1015.1R $$

USA.gov is the U.S. government's official web portal to all federal, state and local government web resources and services.